Home   Weather   Huddersfield   Past weeks

Flag for United Kingdom Past Weather in Huddersfield, England, United Kingdom — Yesterday and Last 2 Weeks

Now
50 °F

Passing clouds.


Feels Like: 46 °F
Forecast: 46 / 51 °F
Wind: 9 mph from West

Location: Leeds And Bradford

Current Time: Dec 10, 2016 at 6:56:44 am

Latest Report: Dec 10, 2016 at 6:20 am


Visibility: N/A

Pressure: 30.07 "Hg

Humidity: 94%

Dew Point: 48 °F

Location of HuddersfieldLocation

Past Weather in Huddersfield — Graph

°F

Huddersfield Temperature Yesterday

Maximum temperature yesterday: 54 °F (at 7:20 am)
Minimum temperature yesterday: 45 °F (at 12:20 am)
Average temperature yesterday: 52 °F

High & Low Weather Summary for the Past Weeks

 TemperatureHumidityPressure
High55 °F (Dec 7, 11:50 am)100% (Nov 25, 8:20 pm)30.54 "Hg (Nov 25, 8:20 pm)
Low27 °F (Nov 29, 5:50 am)61% (Nov 26, 5:20 pm)30.04 "Hg (Dec 7, 1:50 pm)
Average42 °F92%30.28 "Hg
* Reported Nov 25 5:20 am — Dec 10 5:20 am, Huddersfield, Weather by CustomWeather, © 2016

Note: Actual official high and low records may vary slightly from our data, if they occured in-between our weather recording intervals... More about our weather records

Advertising

Huddersfield Weather History for the Previous 24 Hours

Scroll right to see more
 ConditionsComfort  
Time TempWeatherWind HumidityBarometerVisibility
5:20 am
Sat, Dec 10
50 °FPassing clouds.6 mph94%30.04 "HgN/A
4:50 am50 °FLight rain. Overcast.5 mph94%30.04 "HgN/A
4:20 am50 °FLight rain. Overcast.5 mph94%30.04 "HgN/A
3:50 am50 °FLight rain. Partly cloudy.6 mph94%30.04 "HgN/A
3:20 am50 °FLight rain. Passing clouds.5 mph94%30.07 "HgN/A
2:50 am50 °FLight rain. Passing clouds.6 mph94%30.07 "HgN/A
2:20 am50 °FLight rain. Passing clouds.7 mph94%30.07 "HgN/A
1:50 am50 °FPassing clouds.9 mph94%30.07 "HgN/A
1:20 am50 °FClear.12 mph94%30.04 "Hg10 mi
12:50 am50 °FPassing clouds.10 mph94%30.04 "HgN/A
12:20 am50 °FPassing clouds.12 mph94%30.04 "HgN/A
11:20 pm
Fri, Dec 9
50 °FPassing clouds.14 mph94%30.07 "HgN/A
10:50 pm50 °FClear.15 mph94%30.07 "Hg10 mi
10:20 pm50 °FClear.13 mph94%30.07 "HgN/A
9:50 pm50 °FLight rain. Clear.10 mph94%30.07 "HgN/A
9:20 pm50 °FPassing clouds.12 mph94%30.04 "HgN/A
8:50 pm50 °FPassing clouds.9 mph94%30.07 "HgN/A
8:20 pm50 °FLight rain. Passing clouds.13 mph94%30.07 "HgN/A
7:50 pm50 °FLight rain. Partly cloudy.16 mph94%30.07 "HgN/A
7:20 pm50 °FPassing clouds.13 mph100%30.07 "Hg5 mi
6:50 pm52 °FDrizzle. Fog.15 mph94%30.07 "Hg2 mi
6:20 pm54 °FDrizzle. Fog.6 mph94%30.04 "Hg2 mi
5:50 pm54 °FPassing clouds.7 mph94%30.04 "Hg2 mi
5:20 pm54 °FPassing clouds.9 mph94%30.04 "HgN/A
4:50 pm54 °FPartly cloudy.10 mph94%30.04 "Hg6 mi
4:20 pm54 °FPassing clouds.10 mph94%30.07 "Hg2 mi
3:50 pm54 °FLight rain. Passing clouds.9 mph94%30.07 "Hg4 mi
3:20 pm54 °FLight rain. Partly sunny.12 mph94%30.07 "Hg6 mi
2:50 pm54 °FLight rain. Partly sunny.13 mph94%30.07 "HgN/A
2:20 pm54 °FLight rain. Partly sunny.10 mph94%30.07 "HgN/A
1:50 pm54 °FLight rain. Partly sunny.12 mph94%30.07 "HgN/A
1:20 pm54 °FLight rain. Partly sunny.13 mph94%30.07 "HgN/A
12:50 pm54 °FLight rain. Partly sunny.13 mph94%30.07 "HgN/A
12:20 pm54 °FLight rain. Partly sunny.13 mph94%30.07 "HgN/A
11:50 am54 °FLight rain. Partly sunny.13 mph94%30.07 "HgN/A
11:20 am54 °FScattered clouds.14 mph94%30.07 "HgN/A
10:50 am54 °FScattered clouds.16 mph94%30.07 "HgN/A
10:20 am54 °FLight rain. Scattered clouds.14 mph94%30.07 "HgN/A
9:50 am54 °FScattered clouds.12 mph88%30.09 "HgN/A
9:20 am54 °FScattered clouds.7 mph88%30.09 "HgN/A
8:50 am54 °FScattered clouds.13 mph88%30.09 "HgN/A
8:20 am54 °FScattered clouds.10 mph94%30.09 "HgN/A
7:50 am54 °FPassing clouds.9 mph94%30.09 "HgN/A
7:20 am54 °FPassing clouds.8 mph94%30.09 "HgN/A
6:50 am52 °FPassing clouds.5 mph94%30.09 "HgN/A
6:20 am50 °FPassing clouds.6 mph100%30.09 "HgN/A
Weather by CustomWeather, © 2016

See weather overviewHow to use our weather pages